Regional Weather Roundup
Issued by NWS

Home | Current Version | Previous Version | Graphics & Text | Print | Product List | Glossary On
Versions: 1 2 3 4 5 6 7 8 9 10 11 12 13 14 15 16 17 18 19 20 21 22 23 24 25 26 27 28 29 30 31 32 33 34 35 36 37 38 39 40 41 42 43 44 45 46 47 48 49 50
000
ASUS43 KMPX 240501
RWRMN
WEATHER ROUNDUP FOR MINNESOTA
NATIONAL WEATHER SERVICE TWIN CITIES/CHANHASSEN MN
1100 PM CST MON JAN 23 2017


NOTE: "FAIR" INDICATES FEW OR NO CLOUDS BELOW 12,000 FEET WITH NO
SIGNIFICANT WEATHER AND/OR OBSTRUCTIONS TO VISIBILITY. N/A MEANS
CURRENT SKY AND/OR WEATHER CONDITIONS ARE NOT AVAILABLE.

MNZ060>063-068>070-240600-
   Twin Cities Metro

CITY           SKY/WX    TMP DP  RH WIND       PRES   REMARKS
TWIN CITIES    CLOUDY    33  27  78 NW6       29.85S WCI  28
ST PAUL        CLOUDY    33  31  92 CALM      29.86S
CRYSTAL        CLOUDY    32  26  78 CALM      29.84S
BLAINE         CLOUDY    34  32  93 NW5       29.84S WCI  30
LAKEVILLE        N/A     30  30 100 CALM      29.85R
EDEN PRAIRIE   CLOUDY    33  27  78 NW3       29.84R
SOUTH ST PAUL  CLOUDY    33  32  94 CALM      29.85S
LAKE ELMO      CLOUDY    32  32 100 CALM      29.85S FOG
$$
MNZ001>005-007-008-013>017-022>024-027-028-240600-
   Northwest Minnesota

CITY           SKY/WX    TMP DP  RH WIND       PRES   REMARKS
BEMIDJI        CLOUDY    28  24  84 W6        29.80S WCI  22
HALLOCK        CLOUDY    28  25  86 SW10      29.80R WCI  19
ROSEAU         CLOUDY    28  23  80 SW10      29.79S WCI  19
WARROAD        CLOUDY    28  25  86 SW5       29.79S WCI  23
THIEF RVR FALL CLOUDY    26  22  84 W13       29.83R WCI  15
CROOKSTON      CLOUDY    28  25  86 NW9       29.84R WCI  20
FOSSTON        CLOUDY    27  21  80 SW6       29.82S WCI  20
DETROIT LAKES  CLOUDY    30  27  86 NW5       29.83R WCI  25
MOORHEAD       CLOUDY    30  27  86 CALM      29.86R
PARK RAPIDS    CLOUDY    30  24  78 W3        29.80R
MAHNOMEN       CLOUDY    28  23  80 W6        29.82S WCI  22
$$
MNZ006-009>011-018-025>026-240600-
   North Central Minnesota

CITY           SKY/WX    TMP DP  RH WIND       PRES   REMARKS
BAUDETTE       CLOUDY    29  23  78 SW6       29.79R WCI  23
FLAG ISLAND    CLOUDY    28  25  86 SW7       29.78R WCI  21
INTL FALLS     CLOUDY    29  23  78 W3        29.80S
WASKISH        CLOUDY    28  25  86 W9          N/A  WCI  20
BIG FORK       CLOUDY    30  27  86 CALM      29.80S
LONGVILLE      CLOUDY    30  27  86 CALM      29.80S
GRAND RAPIDS   CLOUDY    30  26  85 CALM      29.82S
CRANE LAKE     CLOUDY    30  28  93 CALM      29.82R
ORR            CLOUDY    30  27  86 CALM      29.78R
COOK           CLOUDY    30  28  93 CALM      29.80S
WALKER         CLOUDY    29  24  81 W5        29.81R WCI  24
$$
MNZ012-019>021-037-240600-
   Northeast Minnesota

CITY           SKY/WX    TMP DP  RH WIND       PRES   REMARKS
DULUTH         FLURRIES  33  31  92 NW6       29.80R WCI  28
ELY            LGT SNOW  30  30 100 CALM      29.79R
HIBBING        CLOUDY    30  26  85 CALM      29.80R
EVELETH        CLOUDY    32  28  86 W5        29.81S WCI  28
DULUTH HARBOR  CLOUDY    34  32  93 CALM      29.84R
TWO HARBORS    CLOUDY    37  32  81 CALM      29.78S
SILVER BAY     CLOUDY    34  34 100 CALM      29.78S
GRAND MARAIS     N/A     35  34  96 CALM      29.81R
G MARAIS ARPRT CLOUDY    32  28  86 CALM      29.77R FOG
$$
MNZ029>031-032-039>041-046>048-054>057-064-240600-
   West Central Minnesota

CITY           SKY/WX    TMP DP  RH WIND       PRES   REMARKS
FERGUS FALLS   CLOUDY    30  30 100 CALM      29.87S
WHEATON        CLOUDY    30  27  86 CALM      29.86S
MORRIS         CLOUDY    30  27  86 CALM      29.83S
ALEXANDRIA     CLOUDY    30  24  78 W5        29.83R WCI  25
ELBOW LAKE     CLOUDY    30  28  90 SW3       29.84R FOG
WADENA         CLOUDY    28  25  86 CALM      29.81
GLENWOOD       CLOUDY    30  25  80 CALM      29.84R
APPLETON       CLOUDY    32  28  86 CALM      29.85S
ORTONVILLE     CLOUDY    30  27  86 CALM      29.84S
MADISON        CLOUDY    34  30  86 CALM      29.85R
WILLMAR        CLOUDY    32  28  86 CALM      29.86R
$$
MNZ033>034-036-042>043-049>051-058-059-240600-
   Central Minnesota

CITY           SKY/WX    TMP DP  RH WIND       PRES   REMARKS
ST CLOUD       CLOUDY    31  26  82 NW3       29.84R
SAUK CENTRE    CLOUDY    30  26  88 CALM      29.84R
PAYNESVILLE    CLOUDY    31  30  97 CALM      29.84S
AITKIN         CLOUDY    34  25  69 CALM      29.81S
PINE RIVER     CLOUDY    30  27  86 CALM      29.85R
BRAINERD       CLOUDY    31  25  78 CALM      29.82S
STAPLES        CLOUDY    28  25  86 CALM      29.81F
LONG PRAIRIE   CLOUDY    30  27  86 CALM      29.82S
LITTLE FALLS   CLOUDY    32  27  80 CALM      29.84S
LITCHFIELD     CLOUDY    32  28  86 NW3       29.85S
BUFFALO        CLOUDY    32  26  80 W3        29.86R
MAPLE LAKE     CLOUDY    32  28  86 CALM      29.85S
HUTCHINSON     CLOUDY    32  29  87 CALM      29.86S
$$
MNZ037-044-045-052-053-240600-
   East Central Minnesota

CITY           SKY/WX    TMP DP  RH WIND       PRES   REMARKS
PRINCETON      CLOUDY    34  28  80 CALM      29.85R
MORA           CLOUDY    32  28  86 CALM      29.85S
CAMBRIDGE      CLOUDY    34  30  86 CALM      29.83R
RUSH CITY      CLOUDY    32  28  86 CALM      29.84R
MOOSE LAKE     CLOUDY    32  30  93 CALM      29.81S
HINCKLEY       CLOUDY    32  32 100 CALM      29.83R
CLOQUET        LGT SNOW  32  30  93 CALM      29.81R
MCGREGOR       CLOUDY    32  30  93 CALM      29.82S
$$
MNZ071>073-080-081-089-090-097-098-240600-
   Southwest Minnesota

CITY           SKY/WX    TMP DP  RH WIND       PRES   REMARKS
MONTEVIDEO     CLOUDY    30  30 100 CALM      29.86S
GRANITE FALLS  CLOUDY    33  29  86 CALM      29.86S
CANBY          CLOUDY    32  29  90 CALM      29.84F
MARSHALL       CLOUDY    31  28  89 E6        29.83F WCI  25
REDWOOD FALLS  CLOUDY    32  26  78 CALM      29.85R
OLIVIA         CLOUDY    32  28  86 CALM      29.84S
PIPESTONE      CLOUDY    30  28  93 S8        29.80F WCI  23
WINDOM         CLOUDY    30  28  93 CALM      29.83F
WORTHINGTON    CLOUDY    30  28  92 S7        29.84R WCI  23
JACKSON        CLOUDY    30  28  93 S3        29.84S
TRACY          CLOUDY    32  29  90 E5        29.83F WCI  27
SLAYTON        CLOUDY    29  28  94 SE6       29.82S WCI  23
$$
MNZ065>067-074>077-082>085-091>093-240600-
   South Central Minnesota

CITY           SKY/WX    TMP DP  RH WIND       PRES   REMARKS
MANKATO        CLOUDY    31  30  96 CALM      29.86S
NEW ULM        CLOUDY    32  27  80 CALM      29.85S
ST JAMES       CLOUDY    30  28  93 CALM      29.86F
FAIRMONT       CLOUDY    31  29  92 CALM      29.86S
GLENCOE        CLOUDY    33  31  92 CALM      29.85R
OWATONNA       CLOUDY    32  28  86 W3        29.85R
WASECA         CLOUDY    32  28  86 NW6       29.87R WCI  26
ALBERT LEA     CLOUDY    32  28  86 CALM      29.85R
$$
MNZ078>079-086>088-094>096-240600-
   Southeast Minnesota

CITY           SKY/WX    TMP DP  RH WIND       PRES   REMARKS
ROCHESTER      CLOUDY    31  27  85 W5        29.84R WCI  26
RED WING       CLOUDY    34  28  80 CALM      29.85R
STANTON        CLOUDY    33  29  85 W3        29.84R
DODGE CENTER   CLOUDY    30  28  93 MISG      29.84R
WINONA         CLOUDY    34  32  93 CALM      29.86S
AUSTIN         CLOUDY    30  27  86 CALM      29.84R
PRESTON        CLOUDY    31  28  88 CALM      29.84S
$$
ABBREVIATIONS USED IN REMARKS
   TC - TEMPERATURES IN CELSIUS
  WCI - WIND CHILL INDEX
   HX - HEAT INDEX
  VSB - VISIBILITY
$$




USA.gov is the U.S. government's official web portal to all federal, state and local government web resources and services.